Location: Austin
(30.3000°N, 97.7500°W)
Time: 02:08:03
(UTC-06:00)

Cosmos 2344 - Pass Details

Date: 20 November 2023
Orbit: 1214 x 3029 km, 63.3° (Epoch: 04 December)

Event Time Altitude Azimuth Distance (km) Brightness Sun altitude
Rises 20:29:46 0° 214° (SW) 4,766 7.0 -38.1°
Reaches altitude 10° 20:33:02 10° 216° (SW) 3,592 6.3 -38.8°
Enters shadow 20:39:22 52° 238° (WSW) 1,572 4.1 -40.1°
